Location: Alando
(42.3054°N, 9.2895°E)
Time: 11:33:57
(UTC+00:00)

Cosmos 2228 - Pass Details

Date: 09 April 2020
Orbit: 588 x 619 km, 82.5° (Epoch: 03 June)

Event Time Altitude Azimuth Distance (km) Brightness Sun altitude
Rises 19:05:10 0° 196° (SSW) 2,831 6.4 -12.6°
Reaches altitude 10° 19:07:23 10° 200° (SSW) 1,938 5.6 -13.0°
Maximum altitude 19:11:37 58° 280° (W) 708 3.7 -13.7°
Drops below altitude 10° 19:15:56 10° 0° (N) 1,973 6.0 -14.5°
Sets 19:18:12 0° 5° (N) 2,887 6.8 -14.8°
